User: anonymous   Login
Location: Unspecified
(0.0000°N, 0.0000°E)
Time: 03:44:56
(UTC+02:00)
Language:

Vanguard 2 - Orbit

View from above orbital plane
View from above orbital plane
View from above satellite
View from above satellite

Ground track
Ground track

The orbit data is extracted from the following two-line orbital elements,

1 00011U 59001A   18115.12160179 -.00000019  00000-0 -15338-4 0  9996
2 00011  32.8654 119.7455 1468515 144.2813 226.5562 11.85542270523617
Epoch (UTC): 25 April 2018 02:55:06
Eccentricity: 0.1468515
inclination: 32.8654°
perigee height: 553 km
apogee height: 2939 km
right ascension of ascending node: 119.7455°
argument of perigee: 144.2813°
revolutions per day: 11.85542270
mean anomaly at epoch: 226.5562°
orbit number at epoch: 52361

The dashed part of the orbit path shows where the satellite is in the earth's shadow,  

DLR